SHT7A EGPF-EGLL

Flight info

Callsign SHT7A
Flight time 0h 53m
Altitude 25000
Route NORBO T256 RIPNO/N0477F310 DCT AKOMU DCT VAMEB DCT NUGRA
Aircraft B77W/H-SDE1E2E3FGHIJ2J3J4J5M1RWXY/LB1D1

Departure

Time 2026-05-07 10:44
Airport Glasgow Airport (EGPF)

Arrival

Time 2026-05-07 11:37
Airport London Heathrow Airport (EGLL)
Time Latitude Longitude Altitude Speed Heading
2026-05-07 10:08 55.86418 -4.44025 38 ft 0 kts 242°
2026-05-07 10:28 55.86419 -4.44024 38 ft 2 kts 242°
2026-05-07 10:28 55.86426 -4.43997 36 ft 2 kts 248°
2026-05-07 10:29 55.86431 -4.43970 38 ft 2 kts 258°
2026-05-07 10:29 55.86432 -4.43940 38 ft 2 kts 285°
2026-05-07 10:29 55.86425 -4.43915 34 ft 2 kts 322°
2026-05-07 10:30 55.86415 -4.43903 35 ft 0 kts 331°
2026-05-07 10:38 55.86421 -4.43909 38 ft 8 kts 332°
2026-05-07 10:38 55.86507 -4.43992 38 ft 15 kts 332°
2026-05-07 10:38 55.86583 -4.44030 38 ft 11 kts 20°
2026-05-07 10:38 55.86636 -4.43932 38 ft 11 kts 50°
2026-05-07 10:39 55.86705 -4.43795 38 ft 16 kts 51°
2026-05-07 10:39 55.86747 -4.43609 38 ft 16 kts 72°
2026-05-07 10:39 55.86779 -4.43415 38 ft 16 kts 75°
2026-05-07 10:39 55.86810 -4.43220 38 ft 16 kts 72°
2026-05-07 10:40 55.86842 -4.43028 38 ft 16 kts 73°
2026-05-07 10:40 55.86922 -4.42904 38 ft 16 kts 25°
2026-05-07 10:40 55.87024 -4.42828 38 ft 16 kts 20°
2026-05-07 10:40 55.87163 -4.42733 38 ft 23 kts 21°
2026-05-07 10:41 55.87311 -4.42629 39 ft 23 kts 22°
2026-05-07 10:41 55.87443 -4.42474 39 ft 23 kts 46°
2026-05-07 10:41 55.87555 -4.42267 38 ft 23 kts 46°
2026-05-07 10:41 55.87664 -4.42065 35 ft 18 kts 46°
2026-05-07 10:42 55.87686 -4.42026 35 ft 0 kts 46°
2026-05-07 10:42 55.87719 -4.41965 36 ft 13 kts 46°
2026-05-07 10:42 55.87793 -4.41863 35 ft 14 kts 25°
2026-05-07 10:42 55.87892 -4.41862 35 ft 14 kts 336°
2026-05-07 10:43 55.87903 -4.41987 37 ft 12 kts 238°
2026-05-07 10:43 55.87866 -4.42063 38 ft 9 kts 228°
2026-05-07 10:43 55.87663 -4.42442 41 ft 84 kts 226°
2026-05-07 10:43 55.87083 -4.43521 43 ft 156 kts 224°
2026-05-07 10:44 55.86253 -4.45055 481 ft 176 kts 226°
2026-05-07 10:44 55.85436 -4.46688 1315 ft 182 kts 223°
2026-05-07 10:44 55.84493 -4.48362 1810 ft 204 kts 221°
2026-05-07 10:44 55.83396 -4.50256 2168 ft 236 kts 222°
2026-05-07 10:45 55.82214 -4.52317 3054 ft 240 kts 223°
2026-05-07 10:45 55.81020 -4.54413 4100 ft 241 kts 223°
2026-05-07 10:45 55.79814 -4.56537 5030 ft 248 kts 224°
2026-05-07 10:45 55.78603 -4.58674 5666 ft 244 kts 224°
2026-05-07 10:46 55.77383 -4.60833 6494 ft 250 kts 225°
2026-05-07 10:46 55.76142 -4.63028 7391 ft 253 kts 225°
2026-05-07 10:46 55.74891 -4.65240 8358 ft 254 kts 225°
2026-05-07 10:46 55.73644 -4.67444 9249 ft 258 kts 225°
2026-05-07 10:47 55.72340 -4.69676 10055 ft 261 kts 219°
2026-05-07 10:47 55.70643 -4.70974 10524 ft 282 kts 188°
2026-05-07 10:47 55.68601 -4.70482 10755 ft 315 kts 159°
2026-05-07 10:47 55.66623 -4.68446 10982 ft 344 kts 147°
2026-05-07 10:48 55.64602 -4.65843 11313 ft 369 kts 144°
2026-05-07 10:48 55.62527 -4.63026 12110 ft 381 kts 144°
2026-05-07 10:48 55.60439 -4.60162 13141 ft 387 kts 144°
2026-05-07 10:48 55.58286 -4.57225 14181 ft 393 kts 144°
2026-05-07 10:49 55.56095 -4.54268 15145 ft 399 kts 145°
2026-05-07 10:49 55.53807 -4.51414 16102 ft 404 kts 148°
2026-05-07 10:49 55.51437 -4.48649 17034 ft 411 kts 149°
2026-05-07 10:49 55.49019 -4.45895 17985 ft 417 kts 149°
2026-05-07 10:50 55.46559 -4.43106 18839 ft 423 kts 149°
2026-05-07 10:50 55.44073 -4.40276 19642 ft 428 kts 149°
2026-05-07 10:50 55.41555 -4.37398 20503 ft 433 kts 149°
2026-05-07 10:50 55.39047 -4.34520 21308 ft 438 kts 149°
2026-05-07 10:51 55.36476 -4.31566 22090 ft 444 kts 149°
2026-05-07 10:51 55.33871 -4.28572 22880 ft 449 kts 149°
2026-05-07 10:51 55.31237 -4.25544 23626 ft 454 kts 149°
2026-05-07 10:51 55.28578 -4.22491 24280 ft 458 kts 149°
2026-05-07 10:52 55.25883 -4.19403 24940 ft 462 kts 149°
2026-05-07 10:52 55.23175 -4.16305 25555 ft 467 kts 149°
2026-05-07 10:52 55.20476 -4.13222 26145 ft 471 kts 149°
2026-05-07 10:52 55.17719 -4.10077 26739 ft 475 kts 149°
2026-05-07 10:53 55.14928 -4.06901 27319 ft 479 kts 149°
2026-05-07 10:53 55.12121 -4.03712 27859 ft 483 kts 149°
2026-05-07 10:53 55.09281 -4.00490 28396 ft 487 kts 149°
2026-05-07 10:53 55.06420 -3.97251 28912 ft 491 kts 149°
2026-05-07 10:54 55.03576 -3.94035 29378 ft 495 kts 149°
2026-05-07 10:54 55.00679 -3.90767 29832 ft 498 kts 149°
2026-05-07 10:54 54.97762 -3.87480 30387 ft 497 kts 149°
2026-05-07 10:54 54.94867 -3.84223 31004 ft 494 kts 149°
2026-05-07 10:55 54.91976 -3.80978 31631 ft 491 kts 149°
2026-05-07 10:55 54.89133 -3.77792 32159 ft 490 kts 149°
2026-05-07 10:55 54.86271 -3.74590 32689 ft 489 kts 149°
2026-05-07 10:55 54.83402 -3.71387 33044 ft 492 kts 149°
2026-05-07 10:56 54.77618 -3.64947 33003 ft 490 kts 149°
2026-05-07 10:56 54.71930 -3.58632 33005 ft 487 kts 149°
2026-05-07 10:57 54.66213 -3.52308 33022 ft 487 kts 149°
2026-05-07 10:57 54.60485 -3.45995 33016 ft 490 kts 149°
2026-05-07 10:58 54.57600 -3.42824 33290 ft 492 kts 149°
2026-05-07 10:58 54.54707 -3.39647 33820 ft 491 kts 150°
2026-05-07 10:58 54.51864 -3.36530 34320 ft 488 kts 150°
2026-05-07 10:58 54.48997 -3.33393 34746 ft 487 kts 150°
2026-05-07 10:59 54.46131 -3.30261 35038 ft 489 kts 150°
2026-05-07 10:59 54.43233 -3.27105 35021 ft 494 kts 150°
2026-05-07 10:59 54.37493 -3.20860 35024 ft 487 kts 150°
2026-05-07 11:00 54.31776 -3.14660 35026 ft 485 kts 150°
2026-05-07 11:00 54.26062 -3.08487 35027 ft 485 kts 150°
2026-05-07 11:01 54.20367 -3.02356 35034 ft 485 kts 150°
2026-05-07 11:01 54.14644 -2.96213 35037 ft 486 kts 150°
2026-05-07 11:02 54.08952 -2.90122 35034 ft 487 kts 150°
2026-05-07 11:02 54.03196 -2.83997 35047 ft 486 kts 152°
2026-05-07 11:03 53.97143 -2.79099 35034 ft 481 kts 163°
2026-05-07 11:03 53.90762 -2.75741 35038 ft 479 kts 166°
2026-05-07 11:04 53.85449 -2.73011 35041 ft 479 kts 166°
2026-05-07 11:04 53.78033 -2.69145 35050 ft 478 kts 166°
2026-05-07 11:05 53.72751 -2.66372 35045 ft 478 kts 166°
2026-05-07 11:05 53.65362 -2.62500 35046 ft 477 kts 166°
2026-05-07 11:06 53.60090 -2.59747 35046 ft 476 kts 166°
2026-05-07 11:06 53.53757 -2.56450 35058 ft 476 kts 166°
2026-05-07 11:07 53.47421 -2.53164 35064 ft 475 kts 166°
2026-05-07 11:07 53.41097 -2.49893 35071 ft 475 kts 166°
2026-05-07 11:08 53.34818 -2.46656 35072 ft 474 kts 166°
2026-05-07 11:08 53.28509 -2.43413 35074 ft 474 kts 166°
2026-05-07 11:09 53.22180 -2.40170 35067 ft 474 kts 165°
2026-05-07 11:09 53.15904 -2.36964 35067 ft 474 kts 165°
2026-05-07 11:10 53.09593 -2.33748 35063 ft 474 kts 165°
2026-05-07 11:10 53.03289 -2.30504 35047 ft 473 kts 162°
2026-05-07 11:11 53.00307 -2.28152 34834 ft 475 kts 152°
2026-05-07 11:11 52.97537 -2.25281 34551 ft 476 kts 149°
2026-05-07 11:11 52.94771 -2.22221 34221 ft 477 kts 148°
2026-05-07 11:11 52.92006 -2.19134 33879 ft 478 kts 148°
2026-05-07 11:12 52.89231 -2.16083 33469 ft 479 kts 149°
2026-05-07 11:12 52.86434 -2.13072 33041 ft 480 kts 149°
2026-05-07 11:12 52.83650 -2.10128 32604 ft 481 kts 149°
2026-05-07 11:12 52.80819 -2.07170 32176 ft 482 kts 150°
2026-05-07 11:13 52.77977 -2.04221 31813 ft 481 kts 150°
2026-05-07 11:13 52.75143 -2.01287 31554 ft 478 kts 149°
2026-05-07 11:13 52.72358 -1.98409 31340 ft 475 kts 149°
2026-05-07 11:13 52.69560 -1.95517 30767 ft 473 kts 149°
2026-05-07 11:14 52.66775 -1.92643 30167 ft 469 kts 149°
2026-05-07 11:14 52.64020 -1.89802 29499 ft 465 kts 149°
2026-05-07 11:14 52.61284 -1.86983 28879 ft 459 kts 149°
2026-05-07 11:14 52.58626 -1.84249 28287 ft 455 kts 149°
2026-05-07 11:15 52.55942 -1.81492 27707 ft 450 kts 149°
2026-05-07 11:15 52.53313 -1.78796 27125 ft 446 kts 149°
2026-05-07 11:15 52.50691 -1.76112 26555 ft 442 kts 149°
2026-05-07 11:15 52.48085 -1.73447 25963 ft 439 kts 149°
2026-05-07 11:16 52.45502 -1.70809 25395 ft 436 kts 149°
2026-05-07 11:16 52.42930 -1.68187 24839 ft 433 kts 150°
2026-05-07 11:16 52.40417 -1.65629 24284 ft 430 kts 150°
2026-05-07 11:16 52.37876 -1.63044 23733 ft 428 kts 150°
2026-05-07 11:17 52.35341 -1.60470 23094 ft 426 kts 150°
2026-05-07 11:17 52.32825 -1.57918 22488 ft 423 kts 150°
2026-05-07 11:17 52.30339 -1.55400 21943 ft 419 kts 150°
2026-05-07 11:17 52.27900 -1.52931 21388 ft 416 kts 150°
2026-05-07 11:18 52.25441 -1.50447 20850 ft 413 kts 150°
2026-05-07 11:18 52.23008 -1.47993 20322 ft 409 kts 150°
2026-05-07 11:18 52.20626 -1.45461 20129 ft 410 kts 145°
2026-05-07 11:18 52.18436 -1.42606 19619 ft 407 kts 141°
2026-05-07 11:19 52.16329 -1.39566 19075 ft 402 kts 139°
2026-05-07 11:19 52.14262 -1.36524 18664 ft 403 kts 139°
2026-05-07 11:19 52.12152 -1.33463 18236 ft 408 kts 140°
2026-05-07 11:19 52.10025 -1.30432 17768 ft 404 kts 140°
2026-05-07 11:20 52.07887 -1.27427 17006 ft 406 kts 140°
2026-05-07 11:20 52.05755 -1.24461 16476 ft 401 kts 141°
2026-05-07 11:20 52.03667 -1.21568 15981 ft 396 kts 141°
2026-05-07 11:20 52.01581 -1.18679 15517 ft 392 kts 141°
2026-05-07 11:21 51.99522 -1.15830 15052 ft 387 kts 141°
2026-05-07 11:21 51.97483 -1.13016 14599 ft 383 kts 141°
2026-05-07 11:21 51.95456 -1.10220 14165 ft 381 kts 140°
2026-05-07 11:21 51.93449 -1.07457 13720 ft 378 kts 140°
2026-05-07 11:22 51.91441 -1.04690 13205 ft 376 kts 140°
2026-05-07 11:22 51.89458 -1.01963 12769 ft 373 kts 140°
2026-05-07 11:22 51.87484 -0.99252 12328 ft 370 kts 140°
2026-05-07 11:22 51.85600 -0.96558 11884 ft 361 kts 134°
2026-05-07 11:23 51.84230 -0.93244 11474 ft 344 kts 115°
2026-05-07 11:23 51.83257 -0.89858 11078 ft 319 kts 115°
2026-05-07 11:23 51.82332 -0.86715 10718 ft 299 kts 115°
2026-05-07 11:23 51.81442 -0.83736 10406 ft 293 kts 116°
2026-05-07 11:24 51.80547 -0.80774 10064 ft 293 kts 116°
2026-05-07 11:24 51.79661 -0.77863 9715 ft 293 kts 116°
2026-05-07 11:24 51.78760 -0.74917 9348 ft 292 kts 115°
2026-05-07 11:24 51.77854 -0.71961 8993 ft 292 kts 115°
2026-05-07 11:25 51.76953 -0.69027 8627 ft 286 kts 115°
2026-05-07 11:25 51.76098 -0.66249 8312 ft 273 kts 115°
2026-05-07 11:25 51.75268 -0.63558 8016 ft 271 kts 115°
2026-05-07 11:25 51.74449 -0.60910 7697 ft 271 kts 115°
2026-05-07 11:26 51.73613 -0.58209 7430 ft 267 kts 115°
2026-05-07 11:26 51.72604 -0.55744 7106 ft 263 kts 140°
2026-05-07 11:26 51.70983 -0.54665 7079 ft 253 kts 178°
2026-05-07 11:26 51.69235 -0.54677 7102 ft 258 kts 181°
2026-05-07 11:27 51.67428 -0.54634 7061 ft 257 kts 180°
2026-05-07 11:27 51.65684 -0.54558 7068 ft 247 kts 179°
2026-05-07 11:27 51.63959 -0.54502 7059 ft 246 kts 184°
2026-05-07 11:27 51.62314 -0.55188 7070 ft 245 kts 212°
2026-05-07 11:28 51.61031 -0.56965 7087 ft 244 kts 238°
2026-05-07 11:28 51.60326 -0.59413 6930 ft 238 kts 259°
2026-05-07 11:28 51.60075 -0.62000 6645 ft 236 kts 266°
2026-05-07 11:28 51.59922 -0.64608 6422 ft 233 kts 268°
2026-05-07 11:29 51.59788 -0.67200 6148 ft 231 kts 268°
2026-05-07 11:29 51.59644 -0.69785 5813 ft 232 kts 267°
2026-05-07 11:29 51.59494 -0.72330 5666 ft 224 kts 267°
2026-05-07 11:29 51.59347 -0.74759 5581 ft 214 kts 267°
2026-05-07 11:30 51.59019 -0.77060 5296 ft 213 kts 245°
2026-05-07 11:30 51.58096 -0.78838 4813 ft 214 kts 217°
2026-05-07 11:30 51.56691 -0.79701 4183 ft 220 kts 187°
2026-05-07 11:30 51.55186 -0.79734 3824 ft 214 kts 178°
2026-05-07 11:31 51.53735 -0.79611 3616 ft 200 kts 176°
2026-05-07 11:31 51.52410 -0.79494 3475 ft 181 kts 176°
2026-05-07 11:31 51.51222 -0.79386 3163 ft 163 kts 176°
2026-05-07 11:31 51.50113 -0.79286 2721 ft 160 kts 175°
2026-05-07 11:32 51.48297 -0.77811 2517 ft 149 kts 123°
2026-05-07 11:32 51.47993 -0.76290 2522 ft 144 kts 90°
2026-05-07 11:32 51.47906 -0.74680 2490 ft 146 kts 94°
2026-05-07 11:33 51.47779 -0.73036 2504 ft 150 kts 92°
2026-05-07 11:33 51.47709 -0.71387 2506 ft 150 kts 89°
2026-05-07 11:33 51.47686 -0.69714 2508 ft 151 kts 88°
2026-05-07 11:33 51.47681 -0.68026 2484 ft 150 kts 86°
2026-05-07 11:34 51.47685 -0.66342 2373 ft 153 kts 86°
2026-05-07 11:34 51.47692 -0.64632 2164 ft 154 kts 88°
2026-05-07 11:34 51.47697 -0.62960 1942 ft 146 kts 88°
2026-05-07 11:34 51.47703 -0.61332 1759 ft 147 kts 87°
2026-05-07 11:35 51.47706 -0.59675 1557 ft 148 kts 86°
2026-05-07 11:35 51.47715 -0.58030 1343 ft 149 kts 86°
2026-05-07 11:35 51.47732 -0.56396 1132 ft 147 kts 87°
2026-05-07 11:35 51.47727 -0.54750 913 ft 146 kts 88°
2026-05-07 11:36 51.47735 -0.53148 663 ft 142 kts 89°
2026-05-07 11:36 51.47741 -0.51588 467 ft 139 kts 89°
2026-05-07 11:36 51.47744 -0.50039 297 ft 139 kts 90°
2026-05-07 11:36 51.47749 -0.48515 150 ft 136 kts 90°
2026-05-07 11:37 51.47755 -0.47085 96 ft 116 kts 89°
2026-05-07 11:37 51.47759 -0.46038 94 ft 71 kts 90°
2026-05-07 11:37 51.47748 -0.45550 91 ft 15 kts 113°
2026-05-07 11:37 51.47711 -0.45483 95 ft 5 kts 148°
2026-05-07 11:38 51.47681 -0.45472 93 ft 0 kts 174°
2026-05-07 11:38 51.47680 -0.45471 93 ft 0 kts 174°
2026-05-07 11:38 51.47677 -0.45471 93 ft 1 kts 174°
2026-05-07 11:38 51.47668 -0.45470 92 ft 7 kts 175°
2026-05-07 11:39 51.47609 -0.45494 93 ft 7 kts 226°
2026-05-07 11:39 51.47598 -0.45569 95 ft 8 kts 267°
2026-05-07 11:39 51.47595 -0.45660 96 ft 9 kts 267°
2026-05-07 11:39 51.47595 -0.45791 95 ft 16 kts 271°
2026-05-07 11:40 51.47593 -0.45976 95 ft 17 kts 270°
2026-05-07 11:40 51.47594 -0.46160 95 ft 17 kts 270°
2026-05-07 11:40 51.47594 -0.46345 95 ft 17 kts 270°
2026-05-07 11:40 51.47592 -0.46567 92 ft 24 kts 269°
2026-05-07 11:41 51.47587 -0.46840 94 ft 25 kts 266°
2026-05-07 11:41 51.47583 -0.47084 95 ft 22 kts 269°
2026-05-07 11:41 51.47566 -0.47320 95 ft 21 kts 238°
2026-05-07 11:41 51.47444 -0.47366 93 ft 19 kts 175°
2026-05-07 11:42 51.47306 -0.47358 92 ft 21 kts 180°
2026-05-07 11:42 51.47203 -0.47319 96 ft 11 kts 122°
2026-05-07 11:42 51.47206 -0.47222 96 ft 0 kts 86°